Flag for Brazil Weather past 2 weeks in Pelotas, Rio Grande do Sul, Brazil

55 °F

Light rain. Mostly cloudy.

Feels Like: 51 °F
Forecast: 57 / 62 °F
Wind: 18 mph from Southeast

Location: Pelotas Airport

Current Time: Oct 9, 2015 at 9:26:41 PM

Latest Report: Oct 9, 2015 at 9:00 PM

Visibility: 2 mi

Pressure: 30.12 "Hg

Humidity: 94%

Dew point: 54 °F

Location of PelotasLocation

Historic Weather in Pelotas — Graph


Pelotas temperature yesterday

Maximum temperature yesterday: 72 °F (at 2:00 PM)
Minimum temperature yesterday: 48 °F (at 3:00 AM)
Average temperature yesterday: 65 °F

Past Weeks' High & Low Weather Summary

High77 °F (Oct 2, 2:00 PM)100% (Sep 24, 8:00 PM)30.18 "Hg (Sep 24, 8:00 PM)
Low34 °F (Oct 7, 12:00 PM)31% (Sep 28, 11:00 AM)29.62 "Hg (Sep 24, 9:00 PM)
Average62 °F81%29.94 "Hg
* Reported Sep 24 8:00 PM — Oct 9 8:00 PM, Pelotas, Weather by CustomWeather, © 2015

Note: Actual official high and low records may vary slightly from our data, if they occured in-between our weather recording intervals... More about our weather records


Pelotas weather history for previous 24 hours

Time TempWeatherWind HumidityBarometerVisibility
8:00 PM
Fri, Oct 9
55 °FDrizzle. Mostly cloudy.22 mph94%30.12 "Hg2 mi
7:00 PM55 °FDrizzle. Mostly cloudy.16 mph94%30.09 "Hg2 mi
6:00 PM55 °FLight rain. Fog.14 mph94%30.07 "Hg2 mi
5:00 PM55 °FLight rain. Fog.6 mph94%30.07 "Hg2 mi
4:00 PM55 °FLight rain. Fog.12 mph94%30.07 "Hg2 mi
3:00 PM55 °FLight rain. Fog.16 mph94%30.07 "Hg1 mi
2:00 PM57 °FLight rain. Fog.21 mph94%30.07 "Hg1 mi
1:00 PM57 °FLight rain. Broken clouds.21 mph94%30.04 "Hg5 mi
12:00 PM57 °FLight rain. More clouds than sun.12 mph94%30.09 "Hg2 mi
11:00 AM57 °FLight rain. Mostly cloudy.12 mph94%30.09 "Hg2 mi
10:00 AM57 °FLight rain. Mostly cloudy.9 mph94%30.07 "Hg1 mi
9:00 AM57 °FLight rain. Mostly cloudy.10 mph94%30.07 "Hg4 mi
8:00 AM57 °FLight rain. Mostly cloudy.12 mph94%30.07 "Hg2 mi
7:00 AM57 °FLight rain. Mostly cloudy.12 mph94%30.07 "Hg5 mi
6:00 AM55 °FLight rain. Fog.14 mph100%30.01 "Hg2 mi
5:00 AM57 °FLight rain. Fog.13 mph94%29.98 "Hg1 mi
4:00 AM57 °FLight rain. Fog.14 mph94%29.98 "Hg2 mi
3:00 AM57 °FLight rain. Fog.14 mph94%29.98 "Hg1 mi
2:00 AM57 °FLight rain. Fog.15 mph94%29.95 "Hg1 mi
1:00 AM57 °FLight rain. Fog.14 mph100%29.98 "Hg2 mi
12:00 AM57 °FLight rain. Passing clouds.21 mph100%29.95 "Hg2 mi
11:00 PM
Thu, Oct 8
59 °FFog.20 mph94%29.95 "Hg3 mi
10:00 PM61 °FDrizzle. Low clouds.14 mph94%29.92 "Hg2 mi
9:00 PM61 °FFog.14 mph100%29.89 "Hg2 mi
Weather by CustomWeather, © 2015

See weather overviewHow to use our weather pages